TimeEST,TemperatureF,Dew PointF,Humidity,Sea Level PressureIn,VisibilityMPH,Wind Direction,Wind SpeedMPH,Gust SpeedMPH,PrecipitationIn,Events,Conditions,WindDirDegrees,DateUTC
12:15 AM,33.8,32.4,94,30.14,10.0,Calm,Calm,-,N/A,,Overcast,0,2014-02-11 05:15:00
12:35 AM,34.0,32.4,94,30.13,10.0,WSW,3.5,-,N/A,,Overcast,250,2014-02-11 05:35:00
12:55 AM,33.8,32.2,94,30.13,10.0,Calm,Calm,-,N/A,,Overcast,0,2014-02-11 05:55:00
1:15 AM,33.8,32.2,94,30.13,10.0,Calm,Calm,-,N/A,,Overcast,0,2014-02-11 06:15:00
1:35 AM,33.8,32.7,96,30.13,7.0,Calm,Calm,-,N/A,,Overcast,0,2014-02-11 06:35:00
1:55 AM,33.8,32.4,94,30.13,10.0,Calm,Calm,-,N/A,,Overcast,0,2014-02-11 06:55:00
2:15 AM,33.8,32.5,95,30.13,7.0,Calm,Calm,-,N/A,,Overcast,0,2014-02-11 07:15:00
2:35 AM,33.8,32.5,95,30.13,7.0,SSW,3.5,-,N/A,,Overcast,210,2014-02-11 07:35:00
2:55 AM,33.8,32.2,94,30.13,10.0,WSW,3.5,-,N/A,,Overcast,250,2014-02-11 07:55:00
3:15 AM,33.8,32.2,94,30.13,10.0,WSW,4.6,-,N/A,,Overcast,250,2014-02-11 08:15:00
3:35 AM,33.6,32.2,94,30.12,10.0,Calm,Calm,-,N/A,,Overcast,0,2014-02-11 08:35:00
3:55 AM,33.8,32.4,94,30.12,7.0,Calm,Calm,-,N/A,,Overcast,0,2014-02-11 08:55:00
4:15 AM,33.4,32.2,95,30.13,7.0,SW,3.5,-,N/A,,Overcast,230,2014-02-11 09:15:00
4:35 AM,33.3,32.2,96,30.13,7.0,SW,4.6,-,N/A,,Overcast,230,2014-02-11 09:35:00
4:55 AM,33.3,32.0,95,30.14,7.0,WSW,3.5,-,N/A,,Overcast,250,2014-02-11 09:55:00
5:15 AM,33.3,32.0,95,30.13,7.0,Calm,Calm,-,N/A,,Overcast,0,2014-02-11 10:15:00
5:35 AM,33.3,32.0,95,30.13,10.0,Calm,Calm,-,N/A,,Overcast,0,2014-02-11 10:35:00
5:55 AM,33.4,32.2,95,30.15,7.0,WSW,3.5,-,N/A,,Overcast,240,2014-02-11 10:55:00
6:15 AM,32.9,32.0,96,30.15,7.0,Calm,Calm,-,N/A,,Overcast,0,2014-02-11 11:15:00
6:35 AM,33.1,32.0,96,30.15,5.0,Calm,Calm,-,N/A,Rain,Light Rain,0,2014-02-11 11:35:00
6:55 AM,32.7,32.0,97,30.14,5.0,Calm,Calm,-,N/A,Snow,Light Snow,0,2014-02-11 11:55:00
7:15 AM,32.9,32.0,96,30.14,7.0,Calm,Calm,-,N/A,,Overcast,0,2014-02-11 12:15:00
7:35 AM,32.9,32.0,96,30.15,7.0,Calm,Calm,-,N/A,,Overcast,0,2014-02-11 12:35:00
7:55 AM,33.1,32.4,97,30.17,4.0,WSW,3.5,-,N/A,Rain,Light Rain,250,2014-02-11 12:55:00
8:15 AM,32.9,32.0,96,30.17,4.0,SW,3.5,-,N/A,Rain,Light Rain,230,2014-02-11 13:15:00
8:35 AM,32.2,32.0,99,30.18,1.8,WSW,3.5,-,N/A,Snow,Light Snow,240,2014-02-11 13:35:00
8:55 AM,32.5,32.0,98,30.19,2.5,WSW,3.5,-,N/A,Snow,Light Snow,240,2014-02-11 13:55:00
9:15 AM,32.4,32.0,99,30.19,2.0,SW,4.6,-,N/A,Snow,Light Snow,230,2014-02-11 14:15:00
9:35 AM,32.4,32.0,99,30.20,4.0,WSW,3.5,-,N/A,,Overcast,240,2014-02-11 14:35:00
9:55 AM,33.1,32.0,96,30.20,3.0,West,3.5,-,N/A,Rain,Light Rain,270,2014-02-11 14:55:00
10:15 AM,33.1,32.0,96,30.20,5.0,WSW,5.8,-,N/A,,Overcast,250,2014-02-11 15:15:00
10:35 AM,33.1,32.0,96,30.21,7.0,West,4.6,-,N/A,,Overcast,260,2014-02-11 15:35:00
10:55 AM,33.1,32.0,96,30.21,7.0,WSW,3.5,-,N/A,,Overcast,250,2014-02-11 15:55:00
11:15 AM,33.8,32.0,93,30.22,7.0,Calm,Calm,-,N/A,,Overcast,0,2014-02-11 16:15:00
11:35 AM,33.8,32.0,93,30.22,7.0,West,4.6,-,N/A,,Overcast,260,2014-02-11 16:35:00
11:55 AM,34.3,32.7,94,30.22,7.0,West,5.8,-,N/A,,Overcast,270,2014-02-11 16:55:00
12:15 PM,34.7,32.7,92,30.21,7.0,West,3.5,-,N/A,,Overcast,280,2014-02-11 17:15:00
12:35 PM,34.9,32.7,92,30.21,7.0,Calm,Calm,-,N/A,,Overcast,0,2014-02-11 17:35:00
12:55 PM,35.2,33.1,92,30.20,10.0,West,4.6,-,N/A,,Overcast,280,2014-02-11 17:55:00
1:15 PM,35.6,32.9,90,30.19,10.0,WSW,3.5,-,N/A,,Overcast,240,2014-02-11 18:15:00
1:35 PM,35.6,32.5,89,30.19,10.0,Calm,Calm,-,N/A,,Overcast,0,2014-02-11 18:35:00
1:55 PM,36.0,33.1,89,30.19,10.0,Calm,Calm,-,N/A,,Overcast,0,2014-02-11 18:55:00
2:15 PM,36.5,33.1,87,30.19,10.0,Calm,Calm,-,N/A,,Overcast,0,2014-02-11 19:15:00
2:35 PM,36.3,33.1,88,30.19,10.0,Calm,Calm,-,N/A,,Overcast,0,2014-02-11 19:35:00
3:15 PM,37.0,34.0,89,30.18,5.0,Calm,Calm,-,N/A,,Overcast,0,2014-02-11 20:15:00
3:35 PM,37.4,34.5,89,30.17,7.0,Calm,Calm,-,N/A,,Overcast,0,2014-02-11 20:35:00
3:55 PM,37.4,34.0,87,30.17,10.0,Calm,Calm,-,N/A,,Overcast,0,2014-02-11 20:55:00
4:15 PM,38.3,34.2,85,30.18,10.0,Calm,Calm,-,N/A,,Overcast,0,2014-02-11 21:15:00
4:35 PM,38.3,34.2,85,30.18,10.0,Calm,Calm,-,N/A,,Overcast,0,2014-02-11 21:35:00
4:55 PM,38.3,34.3,86,30.18,10.0,Calm,Calm,-,N/A,,Overcast,0,2014-02-11 21:55:00
5:15 PM,38.3,33.8,84,30.18,10.0,Calm,Calm,-,N/A,,Overcast,0,2014-02-11 22:15:00
5:35 PM,38.3,34.3,86,30.19,10.0,Calm,Calm,-,N/A,,Overcast,0,2014-02-11 22:35:00
5:55 PM,38.3,34.5,86,30.19,10.0,Calm,Calm,-,N/A,,Overcast,0,2014-02-11 22:55:00
6:35 PM,37.2,34.9,91,30.20,10.0,West,3.5,-,N/A,,Overcast,270,2014-02-11 23:35:00
6:55 PM,35.6,33.6,92,30.20,10.0,Calm,Calm,-,N/A,,Mostly Cloudy,0,2014-02-11 23:55:00
7:15 PM,34.7,32.4,91,30.21,10.0,Calm,Calm,-,N/A,,Overcast,0,2014-02-12 00:15:00
7:35 PM,33.4,31.6,93,30.20,10.0,North,3.5,-,N/A,,Scattered Clouds,350,2014-02-12 00:35:00
7:55 PM,32.0,30.7,95,30.21,10.0,Calm,Calm,-,N/A,,Clear,0,2014-02-12 00:55:00
8:55 PM,30.9,29.8,96,30.21,10.0,Calm,Calm,-,N/A,,Clear,0,2014-02-12 01:55:00
9:15 PM,31.1,29.5,94,30.21,10.0,Calm,Calm,-,N/A,,Clear,0,2014-02-12 02:15:00
9:35 PM,29.5,28.9,98,30.20,7.0,Calm,Calm,-,N/A,,Clear,0,2014-02-12 02:35:00
9:55 PM,30.2,29.7,98,30.20,7.0,Calm,Calm,-,N/A,,Clear,0,2014-02-12 02:55:00
10:15 PM,30.2,29.8,99,30.20,7.0,Calm,Calm,-,N/A,,Clear,0,2014-02-12 03:15:00
10:35 PM,29.7,29.3,99,30.20,7.0,Calm,Calm,-,N/A,,Clear,0,2014-02-12 03:35:00
10:55 PM,30.0,29.5,98,30.20,7.0,Calm,Calm,-,N/A,,Clear,0,2014-02-12 03:55:00
11:15 PM,29.8,29.3,98,30.21,5.0,Calm,Calm,-,N/A,,Clear,0,2014-02-12 04:15:00
11:55 PM,30.4,29.7,97,30.20,7.0,Calm,Calm,-,N/A,,Clear,0,2014-02-12 04:55:00